Preview of NWS' New Version of Forecast
This preview is not operational and should not be used for support decisions.

Regional Weather Roundup (RWR)

Issued by National Weather Service (NWS)

                            
000
ASUS45 KBOI 160810
RWRID 

IDAHO REGIONAL WEATHER ROUNDUP
NATIONAL WEATHER SERVICE BOISE ID
200 AM MDT MON SEP 16 2019

NOTE: "FAIR" INDICATES FEW OR NO CLOUDS BELOW 12000 FEET
WITH NO SIGNIFICANT WEATHER AND/OR OBSTRUCTIONS TO VISIBILITY

IDZ012-014-160900-
SOUTHWEST IDAHO

  
CITY           SKY/WX    TMP DP  RH WIND       PRES   REMARKS
BOISE          CLOUDY    73  29  19 SE9       29.71R                  
CALDWELL       CLOUDY    64  43  46 NW8       29.72R                  
MOUNTAIN HOME  CLOUDY    63  36  36 SE9       29.74R                  
$$

IDZ016-017-160900-
SOUTHCENTRAL IDAHO

  
CITY           SKY/WX    TMP DP  RH WIND       PRES   REMARKS
BURLEY         MOCLDY    56  38  50 SW7       29.80S                  
JEROME         CLOUDY    68  37  32 SW6       29.81R                  
TWIN FALLS     CLOUDY    66  32  28 SW12      29.82R                  
$$

IDZ019>023-160900-
SOUTHEAST IDAHO

  
CITY           SKY/WX    TMP DP  RH WIND       PRES   REMARKS
IDAHO FALLS    PTCLDY    50  39  66 CALM      29.85S                  
POCATELLO      MOCLDY    76  21  12 S17       29.82R                  
REXBURG        PTCLDY    52  38  58 VRB3      29.86S                  
$$

IDZ006-010-011-018-031-032-160900-
CENTRAL IDAHO MOUNTAINS

  
CITY           SKY/WX    TMP DP  RH WIND       PRES   REMARKS
MCCALL         PTCLDY    50  32  50 E5        29.80R                  
HAILEY         MOCLDY    52  34  50 NW9       29.90S                  
STANLEY          N/A     49  24  37 CALM      29.93R                  
SALMON         CLEAR     50  32  50 CALM      29.76R                  
CHALLIS        CLEAR     53  30  41 MISG      29.82S                  
$$

IDZ002-004-006-007-026-160900-
NORTHERN IDAHO

  
CITY           SKY/WX    TMP DP  RH WIND       PRES   REMARKS
LEWISTON       CLOUDY    65  44  46 CALM      29.76S                  
LOWELL           N/A     56  51  84 CALM      29.78R                  
COEUR D'ALENE  CLOUDY    58  47  66 SW5       29.77R                  
MULLAN PASS    PTCLDY    45  41  86 NW8       29.85R                  
$$